This demonstration page uses our WeatherBlox Daily Observations layout. Learn more.

Left ArrowRight Arrow

53.62937, 11.41316

Hourly Observations for July 29, 2016

Temp ( °F °C ) Dew Point ( °F °C ) Humidity (%) Winds ( mph kmh ) Pressure ( in mb ) Visibility ( mi km ) Precip ( " mm )
6:20 am 06:20 Mostly Cloudy 63 17 63 17 100 100 SSW 7 11 29.85 1011 4 7 N/A
6:50 am 06:50 Cloudy 63 17 63 17 100 100 SSW 6 9 29.85 1011 4 6 N/A
7:20 am 07:20 Mostly Cloudy with Mist and Fog 63 17 63 17 100 100 SW 8 13 29.85 1011 3 5 N/A
7:50 am 07:50 Cloudy with Mist and Fog 63 17 63 17 100 100 WSW 10 17 29.85 1011 3 5 N/A
8:20 am 08:20 Cloudy with Mist and Fog 64 18 63 17 94 94 WSW 6 9 29.85 1011 3 5 N/A
8:50 am 08:50 Mostly Cloudy 64 18 63 17 94 94 WSW 8 13 29.85 1011 4 7 N/A
9:20 am 09:20 Mostly Cloudy 66 19 61 16 83 83 WSW 8 13 29.85 1011 6 9 N/A
9:50 am 09:50 Mostly Cloudy 66 19 61 16 83 83 WSW 10 17 29.85 1011 30 48 N/A
10:20 am 10:20 Mostly Cloudy 66 19 61 16 83 83 SW 9 15 29.85 1011 30 48 N/A
10:50 am 10:50 Mostly Cloudy 68 20 61 16 78 78 SW 10 17 29.85 1011 30 48 N/A
11:20 am 11:20 Mostly Cloudy 70 21 63 17 78 78 SW 10 17 29.85 1011 30 48 N/A
11:50 am 11:50 Partly Cloudy 72 22 59 15 65 65 SW 13 20 29.85 1011 30 48 N/A
12:20 pm 12:20 Mostly Cloudy 72 22 61 16 69 69 SW 14 22 29.85 1011 30 48 N/A
12:50 pm 12:50 Partly Cloudy 70 21 59 15 69 69 WSW 13 20 29.85 1011 30 48 N/A
1:20 pm 13:20 Partly Cloudy 73 23 59 15 61 61 SW 9 15 29.83 1010 30 48 N/A
1:50 pm 13:50 Mostly Cloudy 73 23 57 14 57 57 SSW 16 26 29.83 1010 30 48 N/A
2:20 pm 14:20 Mostly Cloudy 73 23 57 14 57 57 WSW 12 19 29.83 1010 30 48 N/A
2:50 pm 14:50 Mostly Cloudy 72 22 57 14 61 61 SW 13 20 29.83 1010 30 48 N/A
3:20 pm 15:20 Mostly Cloudy 75 24 57 14 54 54 WSW 10 17 29.83 1010 30 48 N/A
3:50 pm 15:50 Mostly Cloudy 73 23 57 14 57 57 SW 13 20 29.83 1010 30 48 N/A
4:20 pm 16:20 Mostly Cloudy 75 24 59 15 57 57 WSW 13 20 29.83 1010 30 48 N/A
4:50 pm 16:50 Mostly Cloudy 73 23 57 14 57 57 WSW 13 20 29.83 1010 30 48 N/A
5:20 pm 17:20 Mostly Cloudy 75 24 59 15 57 57 SW 13 20 29.83 1010 30 48 N/A
5:50 pm 17:50 Mostly Cloudy 73 23 57 14 57 57 WSW 10 17 29.83 1010 30 48 N/A
6:20 pm 18:20 Partly Cloudy 73 23 57 14 57 57 W 9 15 29.83 1010 30 48 N/A
6:50 pm 18:50 Mostly Cloudy 73 23 59 15 61 61 W 9 15 29.83 1010 30 48 N/A

Powered by AerisWeather